Location: Newark
(42.8481°N, 0.4872°E)
Time: 08:44:01
(UTC+00:00)

Transit 2A Rocket - Pass Details

Date: 02 November 2020
Orbit: 588 x 914 km, 66.7° (Epoch: 29 November)

Event Time Altitude Azimuth Distance (km) Brightness Sun altitude
Rises 15:55:37 0° 335° (NNW) 3,303 8.2 8.0°
Reaches altitude 10° 15:58:32 10° 349° (NNW) 2,308 7.3 7.6°
Maximum altitude 16:02:52 25° 44° (NE) 1,422 6.0 6.9°
Drops below altitude 10° 16:06:53 10° 101° (E) 2,121 6.9 6.2°
Sets 16:09:26 0° 114° (ESE) 2,979 7.7 5.8°
